Zurück zum Katalog

STARLINK-31953

AktivKommunikationVLEO
NORAD 59898·PAYLOAD·🇺🇸 United States

Gestartet May 28, 2024 von Cape Canaveral Space Force Station

Loading…

Nächste Überflüge (nächste 24 Stunden)

TLE

AktuellSource: CelesTrak SupGP

Epoche: Sep 14, 2026, 20:47 UTC

1 59898C 24100P   26257.86645833 -.00029805  00000+0 -10797-2 0  2579
2 59898  43.0011 133.6291 0001173 267.4238 262.1059 15.27588744    16

Verfolge STARLINK-31953 in Echtzeit mit AllMySat

Download on the App Store